sat.trackr.live / text

‹ back to catalog

STARLINK-11547 [DTC]

NORAD 62587 · 2025-008A

PAYLOAD ACTIVE UNKNOWN

§ Identity

Operator
Country
US
Launch date
2025-01-13
Launch site
AFETR
Launch vehicle
Mass (kg)
RCS (m²)

Purposes: comms

External: N2YO · Heavens-Above · Gunter

§ Orbital elements

Epoch: 2026-05-25T01:32:23.107776Z

Period
91.67 min
Inclination
43.0019°
Eccentricity
0.0001622
Mean motion
15.70907477 rev/d
Perigee alt
355.2 km
Apogee alt
357.4 km
Semi-major
6,734.4 km
B*
1.7258e-3
RAAN
26.0130°
Arg perigee
271.0323°
Mean anomaly
89.0359°
Rev number
7,812

§ Raw data

STARLINK-11547 [DTC]1 62587U 25008A   26145.06415634  .00227819  00000+0  17258-2 0  99932 62587  43.0019  26.0130 0001622 271.0323  89.0359 15.70907477 78127

JSON: /api/v1/satellites/62587 · /tle

For live sub-satellite position, see the globe view (requires WebGL).

§ Visibility from observer

Set your observer location to see the next 7 days of passes ≥ 10°. The values pass through the URL so the page stays shareable.

No JS? Fill the form by hand. The geolocation button needs JavaScript.